Estación de Tranapuente INIA
Ultimos registro cada 15 minutos 33
| N° | Estación | Fecha / Hora | Temperatura | Humedad | Lluvia | Velocidad | Dirección | Radiación | Presion |
| 33 | Tranapuente INIA | 05-05-2026 08:00 | 12,5 | 94,8 | 0 | 1 | 136 | 3 | 1001 |
| 32 | Tranapuente INIA | 05-05-2026 07:45 | 12,5 | 94,3 | 0 | 0,8 | 130 | 0 | 1002 |
| 31 | Tranapuente INIA | 05-05-2026 07:30 | 12,5 | 95,1 | 0 | 1,7 | 145 | 0 | 1002 |
| 30 | Tranapuente INIA | 05-05-2026 07:15 | 12,4 | 94,5 | 0 | 0,5 | 137 | 0 | 1002 |
| 29 | Tranapuente INIA | 05-05-2026 07:00 | 12,4 | 95,6 | 0 | 0,8 | 118 | 0 | 1002 |
| 28 | Tranapuente INIA | 05-05-2026 06:45 | 12,5 | 94,3 | 0 | 2,2 | 162 | 0 | 1002 |
| 27 | Tranapuente INIA | 05-05-2026 06:30 | 12,4 | 92,6 | 0 | 1,2 | 167 | 0 | 1002 |
| 26 | Tranapuente INIA | 05-05-2026 06:15 | 12,4 | 93,5 | 0 | 0,2 | 174 | 0 | 1003 |
| 25 | Tranapuente INIA | 05-05-2026 06:00 | 12,7 | 91,8 | 0 | 0,1 | 60 | 0 | 1003 |
| 24 | Tranapuente INIA | 05-05-2026 05:45 | 12,6 | 89,7 | 0 | 0 | 58 | 0 | 1003 |
| 23 | Tranapuente INIA | 05-05-2026 05:30 | 13 | 90,3 | 0 | 0,3 | 222 | 0 | 1003 |
| 22 | Tranapuente INIA | 05-05-2026 05:15 | 12,5 | 84 | 0 | 0,4 | 45 | 0 | 1003 |
| 21 | Tranapuente INIA | 05-05-2026 05:00 | 11,9 | 95,1 | 0 | 0,5 | 67 | 0 | 1003 |
| 20 | Tranapuente INIA | 05-05-2026 04:45 | 11,4 | 98 | 0 | 0,1 | 166 | 0 | 1003 |
| 19 | Tranapuente INIA | 05-05-2026 04:30 | 11,4 | 98,4 | 0 | 0 | 94 | 0 | 1003 |
| 18 | Tranapuente INIA | 05-05-2026 04:15 | 11,3 | 98,7 | 0 | 0,1 | 93 | 0 | 1003 |
| 17 | Tranapuente INIA | 05-05-2026 04:00 | 11,3 | 98,7 | 0 | 0 | 174 | 0 | 1003 |
| 16 | Tranapuente INIA | 05-05-2026 03:45 | 11,4 | 98,3 | 0 | 0 | 0 | 0 | 1004 |
| 15 | Tranapuente INIA | 05-05-2026 03:30 | 11,6 | 97,6 | 0 | 0 | 0 | 0 | 1004 |
| 14 | Tranapuente INIA | 05-05-2026 03:15 | 11,8 | 96,2 | 0 | 0 | 0 | 0 | 1004 |
| 13 | Tranapuente INIA | 05-05-2026 03:00 | 11,7 | 96 | 0 | 0,1 | 116 | 0 | 1004 |
| 12 | Tranapuente INIA | 05-05-2026 02:45 | 11,5 | 98,3 | 0 | 0 | 0 | 0 | 1004 |
| 11 | Tranapuente INIA | 05-05-2026 02:30 | 11,5 | 97,9 | 0 | 0 | 0 | 0 | 1004 |
| 10 | Tranapuente INIA | 05-05-2026 02:15 | 11,5 | 97,9 | 0 | 0 | 0 | 0 | 1004 |
| 9 | Tranapuente INIA | 05-05-2026 02:00 | 11,6 | 97,1 | 0 | 0,1 | 55 | 0 | 1004 |
| 8 | Tranapuente INIA | 05-05-2026 01:45 | 11,6 | 97,9 | 0 | 0 | 0 | 0 | 1004 |
| 7 | Tranapuente INIA | 05-05-2026 01:30 | 11,4 | 99,4 | 0 | 0 | 151 | 0 | 1004 |
| 6 | Tranapuente INIA | 05-05-2026 01:15 | 11,4 | 99,6 | 0 | 0 | 163 | 0 | 1004 |
| 5 | Tranapuente INIA | 05-05-2026 01:00 | 11,4 | 99,6 | 0 | 0 | 0 | 0 | 1004 |
| 4 | Tranapuente INIA | 05-05-2026 00:45 | 11,4 | 99,7 | 0 | 0 | 116 | 0 | 1004 |
| 3 | Tranapuente INIA | 05-05-2026 00:30 | 11,4 | 99,8 | 0 | 0 | 0 | 0 | 1004 |
| 2 | Tranapuente INIA | 05-05-2026 00:15 | 11,4 | 99,9 | 0 | 0 | 0 | 0 | 1004 |
| 1 | Tranapuente INIA | 05-05-2026 00:00 | 11,6 | 99,8 | 0 | 0,2 | 160 | 0 | 1004 |